Вернуться в каталог

CZ-6A DEB

АктивенPO
NORAD 61489·DEBRIS·🇨🇳 China

Запущен Aug 6, 2024 с Taiyuan Satellite Launch Center

Loading…

Ближайшие Пролёты (ближайшие 24 часа)

TLE

СвежийSource: Space-Track

Эпоха: Sep 14, 2026, 01:39 UTC

1 61489U 24140AAX 26257.06908982  .00013261  00000-0  16100-2 0  9996
2 61489  89.2124 279.1844 0066758 190.6113 169.3708 14.81867384106140

Отслеживайте CZ-6A DEB в реальном времени с AllMySat

Download on the App Store